Van Nuys, CA

9:26 PM PDT on June 21, 2018 (GMT -0700)
Van Nuys

Weather History for KVNY - October, 2017

Change the Weather History Date:

Sunday, October 8, 2017

  Actual Average Record
Temperature  
Mean Temperature 69 °F -  
Max Temperature 82 °F 82 °F 100 °F (2015)
Min Temperature 57 °F 55 °F 48 °F (2011)
Cooling Degree Days 4    
Growing Degree Days 19 (Base 50)    
Moisture  
Dew Point 50 °F    
Average Humidity 57    
Maximum Humidity 90    
Minimum Humidity 35    
Precipitation  
Precipitation 0.00 in - - ()
Sea Level Pressure  
Sea Level Pressure 29.73 in    
Wind  
Wind Speed 3 mph (SE)    
Max Wind Speed 13 mph    
Max Gust Speed -    
Visibility 10 miles    
Events      
Averages and records for this station are not official NWS values.
T = Trace of Precipitation, MM = Missing Value Source: NWS Daily Summary

Daily Weather History Graph

Daily Weather History Graph

Search for Another Location

Airport or City:

Astronomy

Oct. 08, 2017 Rise Set
Actual Time 6:54 AM PDT 6:28 PM PDT
Civil Twilight 6:28 AM PDT 6:53 PM PDT
Nautical Twilight 5:59 AM PDT 7:22 PM PDT
Astronomical Twilight 5:30 AM PDT 7:51 PM PDT
Moon 9:00 PM PDT (10/8) 9:55 AM PDT (10/8)
Length of Visible Light 12h 24m
Length of Day
11h 34m
Waning Gibbous, 88% of the Moon is Illuminated
Oct 8
Waning Gibbous
Oct 12
Last Quarter
Oct 19
New
Oct 27
First Quarter
Nov 3
Full

Hourly Weather History & Observations

Time (PDT) Temp. Dew Point Humidity Pressure Visibility Wind Dir Wind Speed Gust Speed Precip Events Conditions
12:51 AM 64.9 °F 37.9 °F 37% 29.71 in 10.0 mi Calm Calm - N/A   Clear
1:51 AM 63.0 °F 39.0 °F 41% 29.72 in 10.0 mi Calm Calm - N/A   Clear
2:51 AM 62.1 °F 37.9 °F 41% 29.71 in 10.0 mi North 4.6 mph - N/A   Clear
3:51 AM 61.0 °F 37.9 °F 42% 29.71 in 10.0 mi Calm Calm - N/A   Clear
4:51 AM 59.0 °F 41.0 °F 51% 29.71 in 10.0 mi Calm Calm - N/A   Clear
5:51 AM 57.9 °F 41.0 °F 53% 29.72 in 10.0 mi Calm Calm - N/A   Clear
6:51 AM 57.0 °F 39.9 °F 53% 29.73 in 10.0 mi NW 3.5 mph - N/A   Clear
7:51 AM 60.1 °F 39.9 °F 47% 29.73 in 10.0 mi Calm Calm - N/A   Clear
8:51 AM 66.0 °F 39.9 °F 38% 29.75 in 10.0 mi Calm Calm - N/A   Clear
9:51 AM 69.1 °F 48.0 °F 47% 29.75 in 10.0 mi East 5.8 mph - N/A   Clear
10:51 AM 73.9 °F 55.0 °F 52% 29.75 in 8.0 mi Calm Calm - N/A   Clear
11:51 AM 75.9 °F 52.0 °F 43% 29.75 in 10.0 mi SSE 8.1 mph - N/A   Clear
12:51 PM 80.1 °F 50.0 °F 35% 29.72 in 10.0 mi Variable 4.6 mph - N/A   Clear
1:51 PM 79.0 °F 50.0 °F 36% 29.70 in 10.0 mi Variable 4.6 mph - N/A   Clear
2:51 PM 81.0 °F 52.0 °F 36% 29.68 in 10.0 mi SSE 10.4 mph - N/A   Clear
3:51 PM 78.1 °F 54.0 °F 43% 29.69 in 10.0 mi SSE 12.7 mph - N/A   Clear
4:51 PM 75.9 °F 55.9 °F 50% 29.69 in 10.0 mi SSE 10.4 mph - N/A   Clear
5:51 PM 72.0 °F 57.0 °F 59% 29.70 in 10.0 mi SSE 11.5 mph - N/A   Clear
6:51 PM 68.0 °F 57.9 °F 70% 29.71 in 10.0 mi SSE 8.1 mph - N/A   Clear
7:51 PM 66.0 °F 59.0 °F 78% 29.72 in 10.0 mi SE 4.6 mph - N/A   Clear
8:51 PM 64.9 °F 60.1 °F 84% 29.74 in 10.0 mi SE 5.8 mph - N/A   Clear
9:51 PM 63.0 °F 59.0 °F 87% 29.75 in 6.0 mi SE 4.6 mph - N/A   Scattered Clouds
10:51 PM 62.1 °F 59.0 °F 90% 29.77 in 10.0 mi SE 5.8 mph - N/A   Scattered Clouds
10:58 PM 63.0 °F 59.0 °F 87% 29.79 in 10.0 mi ESE 5.8 mph - N/A   Overcast
11:12 PM 63.0 °F 59.0 °F 87% 29.80 in 10.0 mi SSE 4.6 mph - N/A   Overcast
11:51 PM 63.0 °F 59.0 °F 87% 29.78 in 10.0 mi SSE 4.6 mph - N/A   Overcast